Location: Unspecified
(48.8656°N, 0.0000°E)
Time: 17:06:57
(UTC+00:00)

Vanguard 1 Rocket - Pass Details

Date: 22 June 2019
Orbit: 652 x 4224 km, 34.3° (Epoch: 16 August)

Event Time Altitude Azimuth Distance (km) Brightness Sun altitude
Rises 22:29:35 0° 264° (W) 4,668 11.2 -14.8°
Drops below altitude 10° 22:37:20 10° 219° (SW) 2,737 9.6 -15.3°
Maximum altitude 22:37:22 10° 219° (SW) 2,732 9.6 -15.3°
Enters shadow 22:38:36 - 207° (SSW) 2,644 9.4 -15.3°
Sets 22:43:03 0° 168° (SSE) 3,139 - -15.6°
